User: anonymous
Location: La Vergne
(36.0160°N, 86.5820°W)
Time: 12:44:45
(UTC-05:00)
Language:

Cosmos 1703 Rocket - Orbit

View from above orbital plane
View from above orbital plane
View from above satellite
View from above satellite

Ground track
Ground track

The orbit data is extracted from the following two-line orbital elements,

1 16263U 85108B   14204.12702097  .00000097  00000-0  91250-5 0  7120
2 16263 082.5029 028.4875 0019303 235.0674 264.0360 14.82428331547297
Epoch (UTC): 23 July 2014 03:02:54
Eccentricity: 0.0019303
inclination: 82.5029°
perigee height: 608 km
apogee height: 635 km
right ascension of ascending node: 28.4875°
argument of perigee: 235.0674°
revolutions per day: 14.82428331
mean anomaly at epoch: 264.0360°
orbit number at epoch: 54729

The dashed part of the orbit path shows where the satellite is in the earth's shadow,  

DLR